Content
SEND FEEDBACK

Daily
Averages
Monthly
Summary
United States of America

FORT RIPLEY, MINNESOTA


Home > North America > United States > Minnesota
Elevation: 1140 feet     Latitude: 46 10N     Longitude: 094 21W

WEATHER
 
SELECT A DAY
Number of Records: 351,854;   Date Range: 1/1/95 - 11/25/14
 
SHARE

PRINT THIS DATA

[ ← Previous Day ]
WEATHER ALMANAC - JANUARY 31, 2013
[ Next Day → ]
[ °C ]   °F
Weather ElementAverageHighLow
Temperature-2.8 °F3.2 °F (12:34 am)-13 °F (11:54 pm)
Dewpoint-12.4 °F-4 °F (12:34 am)-20.2 °F (9:14 pm)
Humidity63.7 %78 % (12:54 am)55 % (11:14 am)
Barometer30.02 in30.23 in (9:54 pm)29.77 in (12:34 am)
Wind Speed11.7 mph17.3 mph (2:14 pm)
Wind Gust26.5 mph (9:54 am)
Weather ElementAverage
Visibility8.3 mi
Wind DirectionWNW (299.4 °)

Weather ElementTotal
Precipitation---
Heating Degree Days69.9 (Base 65)
Averaged from 67 records on January 31, 2013
WEATHER CONDITIONS BREAKOUT
WIND DIRECTION BREAKOUT
WEATHER BY HOUR - JANUARY 31, 2013
[ °C ]   °F
Local TimeTemperatureDewpointHumidityBarometerVisibilityWind DirectionWind SpeedGust SpeedPrecipitationEventsConditions
12:34 AM3.2 °F-4.0 °F72 %29.77 in5.0 miNW (310°)6.9 mphSnowLight Snow
12:54 AM1.4 °F-4.0 °F78 %29.77 in5.0 miWNW (300°)10.4 mph16.1 mphSnowLight Snow
1:14 AM1.4 °F-5.8 °F72 %29.78 in7.0 miWNW (300°)10.4 mphSnowLight Snow
1:34 AM1.4 °F-5.8 °F72 %29.79 in5.0 miWNW (300°)6.9 mphSnowLight Snow
1:54 AM1.4 °F-5.8 °F72 %29.79 in10.0 miWNW (300°)9.2 mphMostly Cloudy
2:14 AM1.4 °F-5.8 °F72 %29.80 in7.0 miWNW (300°)10.4 mph17.3 mphMostly Cloudy
2:34 AM1.4 °F-5.8 °F72 %29.80 in5.0 miWNW (300°)12.7 mph16.1 mphSnowLight Snow
2:54 AM1.4 °F-5.8 °F72 %29.81 in7.0 miWNW (300°)9.2 mph16.1 mphSnowLight Snow
3:14 AM1.4 °F-5.8 °F72 %29.81 in7.0 miNW (310°)11.5 mph16.1 mphOvercast
3:34 AM1.4 °F-5.8 °F72 %29.81 in7.0 miWNW (300°)13.8 mph19.6 mphOvercast
3:54 AM1.4 °F-7.6 °F66 %29.81 in7.0 miWNW (300°)9.2 mph17.3 mphOvercast
4:14 AM1.4 °F-7.6 °F66 %29.83 in7.0 miWNW (300°)8.1 mph17.3 mphOvercast
4:34 AM1.4 °F-7.6 °F66 %29.84 in7.0 miWNW (300°)11.5 mphOvercast
4:54 AM-0.4 °F-7.6 °F72 %29.84 in5.0 miWNW (300°)10.4 mph18.4 mphHaze
5:14 AM-0.4 °F-7.6 °F72 %29.85 in7.0 miNW (310°)8.1 mphOvercast
5:34 AM-0.4 °F-9.4 °F66 %29.86 in7.0 miNW (310°)10.4 mph17.3 mphMostly Cloudy
5:54 AM-0.4 °F-9.4 °F66 %29.86 in7.0 miWNW (300°)9.2 mph20.7 mphMostly Cloudy
6:14 AM-2.2 °F-9.4 °F71 %29.87 in10.0 miNW (310°)13.8 mph20.7 mphMostly Cloudy
6:34 AM-2.2 °F-11.2 °F66 %29.88 in10.0 miNW (310°)6.9 mph17.3 mphScattered Clouds
6:54 AM-4.0 °F-13.0 °F65 %29.90 in10.0 miWNW (300°)10.4 mph17.3 mphScattered Clouds
7:14 AM-4.0 °F-13.0 °F65 %29.91 in7.0 miWNW (300°)9.2 mph18.4 mphMostly Cloudy
7:34 AM-4.0 °F-13.0 °F65 %29.92 in7.0 miNW (310°)8.1 mph17.3 mphOvercast
7:54 AM-4.0 °F-13.0 °F65 %29.93 in5.0 miWNW (300°)11.5 mph17.3 mphHaze
8:14 AM-4.0 °F-13.0 °F65 %29.94 in10.0 miNW (310°)10.4 mphMostly Cloudy
8:34 AM-4.0 °F-13.0 °F65 %29.95 in10.0 miNW (310°)13.8 mph18.4 mphScattered Clouds
8:54 AM-4.0 °F-13.0 °F65 %29.96 in10.0 miWNW (300°)15.0 mph23.0 mphClear
9:34 AM-4.0 °F-13.0 °F65 %29.98 in7.0 miNW (310°)15.0 mph21.9 mphClear
9:54 AM-2.2 °F-13.0 °F60 %29.99 in7.0 miNW (310°)12.7 mph26.5 mphClear
10:14 AM-2.2 °F-13.0 °F60 %30.00 in10.0 miNW (310°)15.0 mph21.9 mphClear
10:34 AM-2.2 °F-13.0 °F60 %30.01 in7.0 miWNW (300°)13.8 mph20.7 mphScattered Clouds
10:54 AM-2.2 °F-13.0 °F60 %30.02 in7.0 miWNW (300°)10.4 mph20.7 mphMostly Cloudy
11:14 AM-0.4 °F-13.0 °F55 %30.03 in7.0 miWNW (300°)9.2 mph19.6 mphMostly Cloudy
11:34 AM-0.4 °F-11.2 °F60 %30.03 in4.0 miWNW (290°)11.5 mph18.4 mphHaze
11:54 AM-0.4 °F-11.2 °F60 %30.03 in5.0 miNW (310°)10.4 mph17.3 mphHaze
12:14 PM-0.4 °F-11.2 °F60 %30.04 in4.0 miWNW (300°)15.0 mph20.7 mphHaze
12:34 PM-0.4 °F-11.2 °F60 %30.04 in7.0 miWNW (300°)13.8 mph19.6 mphScattered Clouds
12:54 PM-0.4 °F-9.4 °F66 %30.04 in7.0 miWNW (290°)16.1 mph20.7 mphScattered Clouds
1:14 PM-0.4 °F-9.4 °F66 %30.05 in7.0 miWNW (300°)16.1 mph23.0 mphMostly Cloudy
1:34 PM1.4 °F-11.2 °F56 %30.06 in10.0 miNW (310°)16.1 mph20.7 mphMostly Cloudy
1:54 PM1.4 °F-9.4 °F61 %30.07 in7.0 miWNW (290°)15.0 mph20.7 mphScattered Clouds
2:14 PM-0.4 °F-11.2 °F60 %30.08 in10.0 miWNW (290°)17.3 mph23.0 mphScattered Clouds
2:34 PM1.4 °F-11.2 °F56 %30.08 in10.0 miWNW (290°)17.3 mph21.9 mphClear
2:54 PM-0.4 °F-13.0 °F55 %30.09 in10.0 miWNW (300°)15.0 mph23.0 mphClear
3:14 PM-0.4 °F-13.0 °F55 %30.09 in10.0 miWNW (290°)16.1 mph21.9 mphClear
3:34 PM-0.4 °F-13.0 °F55 %30.11 in10.0 miWNW (290°)13.8 mph25.3 mphClear
3:54 PM-0.4 °F-13.0 °F55 %30.12 in10.0 miWNW (300°)16.1 mph26.5 mphClear
4:14 PM-0.4 °F-13.0 °F55 %30.13 in10.0 miWNW (300°)13.8 mph21.9 mphClear
4:34 PM-2.2 °F-13.0 °F60 %30.14 in10.0 miWest (280°)16.1 mph21.9 mphClear
4:54 PM-4.0 °F-14.8 °F60 %30.15 in10.0 miWNW (300°)15.0 mph21.9 mphClear
5:14 PM-4.0 °F-14.8 °F60 %30.16 in10.0 miWNW (290°)13.8 mph18.4 mphClear
5:35 PM-5.8 °F-14.8 °F65 %30.17 in10.0 miWNW (290°)15.0 mph18.4 mphClear
6:14 PM-5.8 °F-16.6 °F60 %30.18 in10.0 miWNW (290°)10.4 mph16.1 mphClear
6:35 PM-7.6 °F-16.6 °F65 %30.18 in10.0 miWNW (300°)12.7 mph17.3 mphClear
6:54 PM-7.6 °F-18.4 °F59 %30.18 in10.0 miWNW (290°)16.1 mph21.9 mphClear
7:14 PM-7.6 °F-18.4 °F59 %30.19 in10.0 miWNW (300°)13.8 mph21.9 mphClear
7:35 PM-7.6 °F-18.4 °F59 %30.20 in10.0 miWNW (290°)10.4 mph18.4 mphClear
8:14 PM-7.6 °F-18.4 °F59 %30.21 in10.0 miNW (310°)6.9 mphClear
8:35 PM-9.4 °F-18.4 °F65 %30.21 in10.0 miWNW (300°)11.5 mph18.4 mphClear
8:54 PM-9.4 °F-18.4 °F65 %30.21 in10.0 miWNW (300°)11.5 mph16.1 mphClear
9:14 PM-9.4 °F-20.2 °F59 %30.22 in10.0 miWNW (290°)10.4 mphClear
9:35 PM-9.4 °F-18.4 °F65 %30.22 in10.0 miWNW (300°)9.2 mphClear
9:54 PM-9.4 °F-20.2 °F59 %30.23 in10.0 miWNW (300°)8.1 mphClear
10:14 PM-9.4 °F-20.2 °F59 %30.23 in10.0 miWNW (300°)5.8 mphClear
10:34 PM-9.4 °F-20.2 °F59 %30.23 in10.0 miWNW (290°)5.8 mphClear
11:14 PM-11.2 °F-20.2 °F64 %30.23 in10.0 miWNW (290°)9.2 mphClear
11:34 PM-11.2 °F-20.2 °F64 %30.23 in10.0 miWNW (290°)8.1 mphClear
11:54 PM-13.0 °F-20.2 °F70 %30.23 in10.0 miWNW (290°)5.8 mphClear
Hourly data recorded from KLXL, located miles away from Fort Ripley, Minnesota







STORIES FROM OUR PARTNERS